Regional Weather Roundup
Issued by NWS Cleveland, OH

Home | Current Version | Previous Version | Text Only | Print | Product List | Glossary On
Versions: 1 2 3 4 5 6 7 8 9 10 11 12 13 14 15 16 17 18 19 20 21 22 23 24 25 26 27 28 29 30 31 32 33 34 35 36 37 38 39 40 41 42 43 44 45 46 47 48 49 50
000
ASUS41 KCLE 220912
RWRCLE
OHIO REGIONAL WEATHER ROUNDUP
NATIONAL WEATHER SERVICE WILMINGTON, OH
500 AM EDT SUN APR 22 2018

NOTE: "FAIR" INDICATES FEW OR NO CLOUDS BELOW 12,000 FEET WITH NO
SIGNIFICANT WEATHER AND/OR OBSTRUCTIONS TO VISIBILITY.

OHZ001>008-015>018-024>027-034-035-043-044-221000-
   NORTHWEST OHIO

CITY           SKY/WX    TMP DP  RH WIND       PRES   REMARKS
DEFIANCE       MOCLDY    41  21  44 NE7       30.35F
FINDLAY        FAIR      43  21  41 NE8       30.33S
TOLEDO EXPRESS FAIR      41  22  46 NE5       30.36S
TOLEDO EXEC    FAIR      39  29  67 CALM      30.38S
LIMA           FAIR      40  26  57 NE6       30.32F
$$

OHZ009>014-019>023-028>033-038-089-221000-
   NORTHEAST OHIO

CITY           SKY/WX    TMP DP  RH WIND       PRES   REMARKS
CLE-HOPKINS    FAIR      39  35  86 NE5       30.38F
CLE-LAKEFRONT  FAIR      39  32  76 NE5       30.36F
CUY CO. ARPT   NOT AVBL
LORAIN-ELYRIA  FAIR      35  29  78 NE9       30.36S WCI  28
ASHTABULA      FAIR      30  27  88 CALM      30.38S
AKRON-CANTON   CLOUDY    44  23  43 E9        30.33F
WOOSTER        FAIR      40  29  64 E7        30.34S
MANSFIELD      FAIR      41  24  51 CALM      30.33F
YOUNGSTOWN     FAIR      37  22  54 E8        30.34F
$$

OHZ042-051>053-060>062-070>072-077>081-221000-
  SOUTHWEST OHIO

CITY           SKY/WX    TMP DP  RH WIND       PRES   REMARKS
CINC-COVINGTON CLOUDY    50  26  39 E7        30.26S
CINC-LUNKEN    FAIR      46  39  76 CALM      30.28F
HAMILTON       FAIR      47  28  47 NE5       30.29F
DAYTON         CLOUDY    42  28  57 NE7       30.31S
WRIGHT-PAT AFB CLOUDY    44  28  52 NE7       30.30F
DAYTON GENERAL FAIR      45  27  49 NE9       30.28F
WILMINGTON     FAIR      41  31  67 NE8       30.28F
$$

OHZ036-037-039>041-045>050-054>059-063>069-073>076-082>088-221000-
  CENTRAL AND SOUTHEAST OHIO

CITY           SKY/WX    TMP DP  RH WIND       PRES   REMARKS
COLUMBUS       CLOUDY    45  28  51 NE6       30.30F
OSU AIRPORT    FAIR      42  28  57 NE6       30.31F
BOLTON FIELD   FAIR      43  29  59 NE5       30.31F
RICKENBACK AFB FAIR      43  29  57 NE7       30.29F
NEWARK         FAIR      45  29  53 N3        30.31F
MARION         FAIR      38  29  70 N3        30.33S
LANCASTER      FAIR      44  30  57 CALM      30.31F
ZANESVILLE     FAIR      42  29  59 CALM      30.31F
NEW PHILLY     FAIR      44  33  65 CALM      30.33S
$$




USA.gov is the U.S. government's official web portal to all federal, state and local government web resources and services.